Miscellaneous Local Product
Issued by NWS North Platte, NE

Home | Current Version | Previous Version | Text Only | Print | Product List | Glossary On
Versions: 1 2 3 4 5 6 7 8 9 10 11 12 13 14 15 16 17 18 19 20 21 22 23 24 25 26 27 28 29 30 31 32 33 34 35 36 37 38 39 40 41 42 43 44 45 46 47 48 49 50
000
AXUS43 KLBF 010510
MISLBF


WESTERN AND NORTH CENTRAL NEBRASKA HOURLY WEATHER ROUNDUP
NATIONAL WEATHER SERVICE NORTH PLATTE NE
1100 PM CST SAT FEB 28 2015

***STATIONS NOT REPORTING VARIABLES SUCH AS SKY/WEATHER OR
PRESSURE ARE PROVIDED BY THE NEBRASKA DEPARTMENT OF
ROADS...RAWS...AND APRS NETWORKS...AND ARE NOT UNDER
NATIONAL WEATHER SERVICE QUALITY CONTROL***

...OBSERVATIONS IN AND NEAR THE EASTERN PANHANDLE OF NEBRASKA...

CITY           SKY/WX    TMP DP  RH WIND       PRES   REMARKS
PINE RIDGE     CLOUDY    20   8  60 NE6       30.17R WCI  12
CHADRON        CLOUDY    21  10  62 NE12      30.16R WCI   9
ALLIANCE       PTCLDY    17  12  80 NE3       30.09S
SIDNEY         CLOUDY    20  14  77 CALM      30.06F
WHITECLAY        N/A     20   6  52 N5          N/A  WCI  14
CRESCENT LAKE    N/A     19  11  70 S3          N/A
LISCO            N/A     24  12  62 NE7         N/A  WCI  15
BIG SPRINGS      N/A     21  14  75 S6          N/A  WCI  13
LEWELLEN         N/A     15   8  71 S7          N/A  WCI   6
$$

...OBSERVATIONS IN NORTH CENTRAL NEBRASKA...

CITY           SKY/WX    TMP DP  RH WIND       PRES   REMARKS
VALENTINE      MOCLDY    20   5  52 NE7       30.19R WCI  11
THEDFORD       PTCLDY    19  12  76 CALM      30.18R
AINSWORTH      PTCLDY    17   6  60 N5        30.19R WCI  10
O`NEILL        PTCLDY    18  11  74 CALM      30.21S
ORD            CLEAR     10   5  80 CALM      30.24R
BROKEN BOW     PTCLDY    17  10  74 SW5       30.21R WCI  10
BROWNLEE         N/A     16   4  60 N5          N/A  WCI   9
SPRINGVIEW       N/A     20   5  52 CALM        N/A
BREWSTER         N/A     22  15  75 W8          N/A  WCI  12
ROSE             N/A     24  17  74 S6          N/A  WCI  17
NEWPORT          N/A     29  11  47 W7          N/A  WCI  22
SARGENT          N/A     19  13  76 CALM        N/A
COMSTOCK         N/A     22  15  76 SW8         N/A  WCI  12
CHAMBERS         N/A     15   6  66 S3          N/A
EWING            N/A     16  11  79 S3          N/A
$$

...OBSERVATIONS IN SOUTHWEST NEBRASKA AND FAR NORTHEAST COLORADO...

CITY           SKY/WX    TMP DP  RH WIND       PRES   REMARKS
WRAY           CLOUDY    22  15  74 SE5       30.13F WCI  15
IMPERIAL         N/A     15  10  80 S6        30.17R WCI   6
OGALLALA       CLOUDY    19  12  74 CALM      30.15F
NORTH PLATTE   MOCLDY    16  10  77 S3        30.19S
MCCOOK         CLOUDY    24  15  68 S5        30.21F WCI  18
LEXINGTON      PTCLDY    16  13  87 S7        30.23F WCI   7
PAXTON           N/A     17  12  80 CALM        N/A
BRADY            N/A     14   9  79 CALM        N/A
GOTHENBURG       N/A     15  11  82 CALM        N/A
CALLAWAY         N/A     14  10  83 S5          N/A  WCI   6
$$

...NORTH PLATTE AREA...

CITY           SKY/WX    TMP DP  RH WIND       PRES   REMARKS
AIRPORT        MOCLDY    16  10  77 S3        30.19S
$$

...SOME WEATHER OBSERVATIONS FROM AROUND THE REGION...

CITY           SKY/WX    TMP DP  RH WIND       PRES   REMARKS
DENVER         MOCLDY    17  10  74 SW5       30.00R WCI  10
LARAMIE        FLURRIES  15  10  80 SE13      29.88R WCI   1
CHEYENNE       CLOUDY    18  11  74 CALM      29.95S
SCOTTSBLUFF    MOCLDY    21  13  71 E8        30.09R WCI  11
RAPID CITY     CLOUDY    12   7  80 NW3       30.18R
PIERRE         PTCLDY    13   5  70 NW6       30.24R WCI   4
WINNER         FAIR      14  -2  49 NW7       30.24R WCI   4
SIOUX FALLS    CLEAR     18  12  77 SW14      30.23R WCI   4
OMAHA          FLURRIES  23  17  78 S9        30.36F WCI  13
GRAND ISLAND   CLEAR     15  11  83 S8        30.28F WCI   4
KANSAS CITY    FLURRIES  22  19  89 SE5       30.37F WCI  16
WICHITA        CLOUDY    23  18  81 SE3       30.34R
HAYS           CLOUDY    18   7  62 E3        30.27S
LIBERAL        CLOUDY    23  18  80 SE12      30.18F WCI  12
GOODLAND       CLOUDY    18  15  88 S7        30.14R WCI   9
$$



USA.gov is the U.S. government's official web portal to all federal, state and local government web resources and services.